sat.trackr.live / text

‹ back to catalog

STARLINK-3806

NORAD 52378 · 2022-045AZ

PAYLOAD ACTIVE UNKNOWN

§ Identity

Operator
Country
US
Launch date
2022-04-29
Launch site
AFETR
Launch vehicle
Mass (kg)
RCS (m²)

Purposes: comms

External: N2YO · Heavens-Above · Gunter

§ Orbital elements

Epoch: 2026-05-24T13:58:53.046624Z

Period
95.44 min
Inclination
53.2156°
Eccentricity
0.0001225
Mean motion
15.08829043 rev/d
Perigee alt
538.9 km
Apogee alt
540.6 km
Semi-major
6,917.9 km
B*
7.7848e-5
RAAN
208.4259°
Arg perigee
86.1996°
Mean anomaly
273.9137°
Rev number
22,738

§ Raw data

STARLINK-38061 52378U 22045AZ  26144.58255841  .00000951  00000+0  77848-4 0  99952 52378  53.2156 208.4259 0001225  86.1996 273.9137 15.08829043227382

JSON: /api/v1/satellites/52378 · /tle

For live sub-satellite position, see the globe view (requires WebGL).

§ Visibility from observer

Set your observer location to see the next 7 days of passes ≥ 10°. The values pass through the URL so the page stays shareable.

No JS? Fill the form by hand. The geolocation button needs JavaScript.